[[{"header":{"parameterUnit":"m.s-1","parameterCategory":1,"la1":30.2991,"la2":30.254,"lo1":-89.0895,"lo2":-89.0444,"dy":0.0017,"dx":0.0017,"nx":28,"ny":28,"refTime":"2024-04-04T21:00:00:Z","depth":0,"parameterNumber":2,"parameterNumberName":"U-component_of_WINDS"},"data":[0,0,0,0,0,0,0,0,0,0,0,0,0,0,0,0,0,0,0,0,0,0,0,0,0,0,0,0,0,0,0,0,0,0,0,0,0,0,0,0,0,0,0,0,0,0,0,0,0,0,0,0,0,0,0,0,0,0,-4.1874,-4.1873,0,-4.1822,-4.1821,-4.1821,-4.1673,-4.1669,-4.1666,-4.1663,-4.1613,-4.1615,-4.1617,0,0,0,0,0,0,0,0,0,0,0,0,0,-4.185,-4.1851,-4.1874,-4.1873,-4.1873,-4.1822,-4.1821,-4.1821,-4.1673,-4.1669,-4.1665,-4.1662,-4.1613,-4.1615,-4.1617,0,0,0,0,0,0,0,0,0,0,0,0,0,-4.1836,-4.1851,-4.1874,-4.1793,-4.1785,-4.1822,-4.1821,-4.182,-4.1674,-4.1669,-4.1664,-4.166,-4.1612,-4.1615,-4.1617,-4.173,0,0,-4.1625,-4.1626,0,0,0,0,0,0,0,0,-4.1837,-4.1837,-4.1805,-4.1798,-4.179,-4.1749,-4.1794,-4.179,-4.1675,-4.1716,-4.1663,-4.1658,-4.1663,-4.1661,-4.1662,-4.1727,-4.1725,-4.1625,-4.1627,-4.1628,-4.1628,0,0,0,0,0,0,0,-4.1838,-4.1838,-4.1853,-4.1805,-4.1796,-4.1761,-4.1753,-4.1793,-4.1717,-4.1712,-4.1702,-4.1697,-4.1657,-4.166,-4.1659,-4.1724,-4.1625,-4.1627,-4.1629,-4.163,-4.1881,-4.1886,0,0,0,0,0,0,-4.185,-4.184,-4.1855,-4.1852,-4.1802,-4.1765,-4.1757,-4.1767,-4.1716,-4.1704,-4.1701,-4.1691,-4.1658,-4.1657,-4.1657,-4.1785,-4.1628,-4.163,-4.1632,-4.1876,-4.1882,-4.1888,0,0,0,0,0,0,-4.185,-4.1852,-4.1857,-4.1843,-4.1841,-4.177,-4.1783,-4.1768,-4.177,-4.1708,-4.1694,-4.1717,-4.1654,-4.1654,-4.1713,-4.1781,-4.1631,-4.1634,-4.187,-4.1878,-4.1885,-4.2042,0,0,0,0,0,0,-4.185,-4.1853,-4.1894,-4.1845,-4.1842,-4.1912,-4.1787,-4.1771,-4.1775,-4.176,-4.1719,-4.1708,-4.165,-4.171,-4.1715,-4.1782,-4.1636,-4.1863,-4.1873,-4.1882,-4.203,-4.2054,-4.2075,0,0,0,0,0,-4.1849,-4.1941,-4.1897,-4.1899,-4.1891,-4.1917,-4.1915,-4.1845,-4.1781,-4.1822,-4.1782,-4.1709,-4.1774,-4.1717,-4.1722,-4.179,-4.1858,-4.187,-4.1882,-4.202,-4.2049,-4.2074,0,0,0,0,0,0,-4.2,-4.1933,-4.1883,-4.1961,-4.1946,-4.1891,-4.194,-4.1879,-4.1882,-4.1868,-4.1783,-4.1775,-4.1846,-4.1825,-4.1763,-4.1897,-4.1804,-4.1817,-4.1908,-4.1935,-4.1957,-4.1959,-4.1638,0,0,0,0,0,-4.2043,-4.2068,-4.2008,-4.2083,-4.2078,-4.2011,-4.202,-4.1968,-4.1949,-4.1941,-4.1906,-4.1892,-4.1908,-4.1921,-4.1933,-4.2028,-4.2017,-4.2078,-4.21,-4.2118,-4.213,-4.2179,-4.2205,-4.1926,-4.1926,-4.1925,0,0,-4.213,-4.2097,-4.2117,-4.2112,-4.2094,-4.2123,-4.2006,-4.2042,-4.2063,-4.1947,-4.1999,-4.1975,-4.1953,-4.203,-4.2063,-4.2014,-4.2205,-4.2133,-4.2148,-4.2149,-4.2193,-4.222,-4.2243,-4.1934,-4.1932,-4.1931,0,0,-4.2304,-4.2281,-4.2341,-4.2325,-4.2299,-4.2255,-4.227,-4.2226,-4.2204,-4.2256,-4.217,-4.2195,-4.2226,-4.2214,-4.2212,-4.2385,-4.2318,-4.2392,-4.2506,-4.2555,-4.2577,-4.2596,-4.2657,-4.268,-4.2405,-4.2405,-4.2405,0,-4.2416,-4.2454,-4.238,-4.242,-4.2421,-4.2319,-4.2379,-4.2368,-4.2349,-4.2352,-4.2299,-4.2336,-4.2314,-4.2387,-4.243,-4.2432,-4.2447,-4.2394,-4.258,-4.2598,-4.2615,-4.2672,-4.2695,-4.2414,-4.2413,-4.2412,-4.2411,0,-4.2593,-4.2622,-4.2674,-4.2656,-4.2663,-4.2714,-4.2648,-4.2665,-4.2614,-4.2576,-4.2632,-4.2603,-4.2607,-4.2621,-4.2572,-4.2689,-4.2659,-4.2595,-4.2499,-4.2652,-4.2704,-4.2725,-4.2427,-4.2424,-4.2421,-4.2419,0,0,-4.2856,-4.2799,-4.2819,-4.281,-4.2776,-4.2797,-4.2845,-4.2848,-4.2864,-4.2856,-4.2893,-4.2923,-4.2863,-4.2862,-4.2811,-4.2854,-4.2993,-4.2783,-4.2782,-4.2822,-4.3119,-4.3166,-4.3192,-4.2949,-4.2953,-4.2956,-4.312,0,-4.3018,-4.3094,-4.303,-4.3118,-4.3144,-4.3049,-4.3091,-4.3075,-4.3043,-4.3061,-4.3025,-4.3047,-4.2967,-4.2965,-4.3004,-4.2967,-4.3051,-4.2955,-4.2983,-4.2985,-4.2989,-4.3219,-4.3269,-4.3424,-4.314,-4.3143,-4.3146,0,-4.3216,-4.3216,-4.3307,-4.3268,-4.3277,-4.3315,-4.3314,-4.3333,-4.3315,-4.3288,-4.3288,-4.3226,-4.3271,-4.3181,-4.3242,-4.3179,-4.3188,-4.3172,-4.3177,-4.3174,-4.3073,-4.3221,-4.3472,-4.3495,-4.3177,-4.3175,-4.3173,0,-4.3397,-4.342,-4.3477,-4.3473,-4.343,-4.3459,-4.3443,-4.3419,-4.3426,-4.3427,-4.3431,-4.3438,-4.3441,-4.3448,-4.339,-4.333,-4.346,-4.3364,-4.3439,-4.344,-4.3467,-4.3466,-4.3721,-4.3478,-4.3478,-4.3478,-4.3477,0,-4.3583,-4.3642,-4.3558,-4.3592,-4.3657,-4.3584,-4.365,-4.3624,-4.3605,-4.3634,-4.3555,-4.3584,-4.3507,-4.3529,-4.3485,-4.3543,-4.3546,-4.3526,-4.3513,-4.3531,-4.3534,-4.3533,-4.352,-4.3484,-4.3482,-4.3481,-4.348,0,-4.3794,-4.374,-4.3795,-4.3751,-4.3741,-4.379,-4.3752,-4.3784,-4.3747,-4.3786,-4.3791,-4.3734,-4.3756,-4.37,-4.3714,-4.3684,-4.3767,-4.3738,-4.3773,-4.3763,-4.384,-4.3833,-4.4101,-4.4133,-4.3873,-4.3876,-4.3878,0,-4.3914,-4.3957,-4.3918,-4.3932,-4.3919,-4.3943,-4.3949,-4.3882,-4.3893,-4.3877,-4.391,-4.3926,-4.3934,-4.3975,-4.3935,-4.3946,-4.3915,-4.4009,-4.3916,-4.3934,-4.3914,-4.3911,-4.3915,-4.4027,-4.403,-4.4033,-4.4035,0,-4.4134,-4.4106,-4.4118,-4.4123,-4.4133,-4.4134,-4.4128,-4.4145,-4.4072,-4.4089,-4.4111,-4.4118,-4.4133,-4.4149,-4.4152,-4.4136,-4.4074,-4.4065,-4.4083,-4.41,-4.4118,-4.4108,-4.3822,-4.4058,-4.4056,-4.4054,-4.4053,-4.4052,-4.4301,-4.4335,-4.4313,-4.4331,-4.432,-4.4318,-4.4345,-4.4313,-4.4329,-4.4335,-4.4295,-4.4326,-4.4309,-4.4305,-4.4297,-4.4321,-4.4278,-4.4304,-4.431,-4.4317,-4.4329,-4.4117,-4.4321,-4.4321,-4.432,-4.4319,-4.4319,0,-4.4515,-4.4497,-4.4514,-4.4509,-4.4524,-4.4465,-4.4457,-4.4473,-4.4501,-4.449,-4.45,-4.4526,-4.4543,-4.4506,-4.4517,-4.4543,-4.4515,-4.4548,-4.4544,-4.4542,-4.4367,-4.4349,-4.4571,-4.4571,-4.4571,-4.4571,-4.4571,-4.4571,-4.4627,-4.4682,-4.4652,-4.4701,-4.4683,-4.4711,-4.4712,-4.471,-4.4701,-4.4733,-4.4746,-4.4722,-4.4702,-4.4711,-4.4725,-4.4713,-4.472,-4.4763,-4.4742,-4.4579,-4.4554,-4.453,-4.4514,-4.4766,-4.4766,-4.4915,-4.4916,-4.4917]},{"header":{"parameterUnit":"m.s-1","parameterCategory":1,"la1":30.2991,"la2":30.254,"lo1":-89.0895,"lo2":-89.0444,"dy":0.0017,"dx":0.0017,"nx":28,"ny":28,"refTime":"2024-04-04T21:00:00:Z","depth":0,"parameterNumber":3,"parameterNumberName":"V-component_of_WINDS"},"data":[0,0,0,0,0,0,0,0,0,0,0,0,0,0,0,0,0,0,0,0,0,0,0,0,0,0,0,0,0,0,0,0,0,0,0,0,0,0,0,0,0,0,0,0,0,0,0,0,0,0,0,0,0,0,0,0,0,0,2.7424,2.7424,0,2.7396,2.7395,2.7395,2.7404,2.7404,2.7405,2.7405,2.737,2.7369,2.7367,0,0,0,0,0,0,0,0,0,0,0,0,0,2.7481,2.748,2.7424,2.7424,2.7423,2.7396,2.7395,2.7395,2.7404,2.7404,2.7405,2.7406,2.7371,2.7369,2.7367,0,0,0,0,0,0,0,0,0,0,0,0,0,2.7455,2.748,2.7424,2.7425,2.7424,2.7396,2.7395,2.7395,2.7403,2.7404,2.7405,2.7406,2.7371,2.7369,2.7367,2.7335,0,0,2.736,2.7359,0,0,0,0,0,0,0,0,2.7456,2.7453,2.7425,2.7424,2.7424,2.7404,2.7403,2.7374,2.7403,2.7411,2.7405,2.7407,2.738,2.7377,2.737,2.7333,2.7331,2.736,2.7358,2.7357,2.7357,0,0,0,0,0,0,0,2.7458,2.7454,2.7413,2.7424,2.7424,2.7425,2.7422,2.7397,2.7391,2.741,2.7411,2.7408,2.738,2.7372,2.7369,2.7331,2.736,2.7358,2.7356,2.7356,2.7267,2.7266,0,0,0,0,0,0,2.7461,2.7455,2.7414,2.7412,2.7443,2.7423,2.742,2.741,2.7391,2.7389,2.7407,2.7408,2.7375,2.7372,2.7368,2.7329,2.7357,2.7355,2.7354,2.7268,2.7267,2.7266,0,0,0,0,0,0,2.7462,2.7457,2.7415,2.7434,2.7429,2.7421,2.7409,2.7409,2.74,2.7389,2.7387,2.74,2.7376,2.7371,2.7343,2.7328,2.7354,2.7352,2.7269,2.7268,2.7266,2.7252,0,0,0,0,0,0,2.7464,2.7458,2.7446,2.7434,2.7428,2.7392,2.7409,2.7407,2.7397,2.7399,2.7382,2.738,2.7376,2.7347,2.7341,2.7326,2.735,2.727,2.7268,2.7267,2.7253,2.725,2.7247,0,0,0,0,0,2.7466,2.7441,2.7445,2.744,2.7413,2.7391,2.7387,2.7386,2.7396,2.7384,2.7377,2.738,2.7331,2.7344,2.7338,2.7321,2.7271,2.7269,2.7267,2.7255,2.7251,2.7247,0,0,0,0,0,0,2.745,2.744,2.7444,2.7415,2.7404,2.7393,2.7377,2.7381,2.7365,2.7367,2.7364,2.736,2.7332,2.7324,2.7338,2.7289,2.7302,2.7299,2.7296,2.7291,2.7288,2.729,2.7349,0,0,0,0,0,2.7443,2.7428,2.7419,2.7395,2.7389,2.7384,2.7375,2.7375,2.7362,2.7357,2.7348,2.7334,2.7316,2.7303,2.7285,2.7253,2.7249,2.7239,2.7235,2.7233,2.7229,2.7212,2.7207,2.7258,2.7258,2.7258,0,0,2.7429,2.7422,2.7411,2.7391,2.7383,2.7366,2.738,2.7361,2.7348,2.7353,2.7327,2.732,2.7305,2.7275,2.7261,2.7267,2.7215,2.723,2.7228,2.7226,2.7209,2.7204,2.72,2.7257,2.7257,2.7257,0,0,2.7394,2.7387,2.7366,2.7358,2.7346,2.7344,2.7339,2.7327,2.7323,2.7298,2.7302,2.7286,2.7254,2.7243,2.7233,2.7197,2.7199,2.7191,2.7173,2.7156,2.7152,2.7148,2.7135,2.7131,2.7188,2.7188,2.7188,0,2.7376,2.7353,2.7355,2.7336,2.7327,2.7334,2.7313,2.7304,2.7286,2.7279,2.7287,2.7248,2.7238,2.7206,2.7198,2.719,2.7183,2.7192,2.7153,2.7149,2.7146,2.7133,2.7128,2.7187,2.7187,2.7187,2.7187,0,2.7332,2.7315,2.73,2.7285,2.7275,2.7254,2.7252,2.7241,2.7243,2.7239,2.7213,2.7202,2.7182,2.7175,2.7175,2.7143,2.7147,2.7154,2.7167,2.714,2.7128,2.7123,2.7185,2.7186,2.7186,2.7186,0,0,2.7284,2.7273,2.7267,2.7261,2.7249,2.7235,2.7216,2.7199,2.719,2.7177,2.716,2.7134,2.7141,2.713,2.713,2.7115,2.7087,2.7124,2.7123,2.7117,2.7051,2.7046,2.704,2.709,2.7089,2.7088,2.7052,0,2.7248,2.7215,2.7217,2.7186,2.717,2.7178,2.7161,2.7151,2.7148,2.7133,2.7128,2.711,2.712,2.7114,2.71,2.7093,2.7074,2.7096,2.7072,2.7071,2.7075,2.7034,2.7027,2.6994,2.7048,2.7047,2.7046,0,2.72,2.719,2.7157,2.715,2.7143,2.7128,2.7114,2.71,2.7089,2.7087,2.7077,2.7079,2.7058,2.7073,2.7043,2.7059,2.7049,2.7045,2.7043,2.704,2.7056,2.7029,2.6983,2.6978,2.7039,2.7039,2.704,0,2.7169,2.7145,2.7124,2.7118,2.7108,2.7098,2.7093,2.7083,2.7074,2.7061,2.7054,2.7038,2.7029,2.7017,2.7014,2.7025,2.6985,2.6999,2.6981,2.6981,2.6971,2.6972,2.6923,2.6967,2.6967,2.6967,2.6967,0,2.7127,2.7107,2.7109,2.7096,2.7073,2.7076,2.7053,2.7049,2.7041,2.7026,2.7031,2.7016,2.7015,2.6999,2.6997,2.6973,2.6969,2.6966,2.6966,2.6965,2.6966,2.6958,2.696,2.6965,2.6966,2.6966,2.6966,0,2.7087,2.7088,2.7064,2.7058,2.7056,2.704,2.7034,2.7021,2.7019,2.7,2.6995,2.6991,2.6973,2.697,2.6949,2.6947,2.6919,2.6921,2.6923,2.6923,2.6905,2.6907,2.6849,2.6842,2.6891,2.689,2.689,0,2.706,2.7045,2.7039,2.703,2.7025,2.7011,2.7002,2.7005,2.6995,2.6983,2.697,2.6954,2.6941,2.6912,2.6906,2.689,2.6891,2.6872,2.6888,2.6889,2.689,2.6891,2.6889,2.6868,2.6868,2.6868,2.6867,0,2.7013,2.7014,2.7003,2.6991,2.6981,2.6972,2.6963,2.6955,2.6956,2.6945,2.6928,2.6918,2.6898,2.6881,2.6865,2.6859,2.6863,2.6863,2.6858,2.6856,2.6858,2.6857,2.6914,2.6863,2.6864,2.6864,2.6864,2.6864,2.6978,2.6966,2.696,2.6946,2.6941,2.6933,2.692,2.6918,2.6905,2.689,2.6892,2.6873,2.6863,2.6843,2.6836,2.6821,2.6826,2.6819,2.6817,2.6815,2.6814,2.6862,2.6818,2.6818,2.6818,2.6818,2.6818,0,2.693,2.6928,2.6916,2.6905,2.6894,2.6902,2.6893,2.6883,2.6868,2.6859,2.6847,2.6828,2.6813,2.6807,2.6791,2.678,2.6782,2.6776,2.6776,2.6774,2.6809,2.6815,2.6775,2.6775,2.6775,2.6775,2.6775,2.6775,2.6904,2.6884,2.6886,2.6862,2.6859,2.6843,2.6837,2.683,2.6823,2.6803,2.6791,2.6788,2.6781,2.6765,2.6751,2.6749,2.6743,2.6736,2.6735,2.6768,2.6772,2.6776,2.6781,2.6735,2.6735,2.6702,2.6701,2.6701]}]]